Madison, MN

12:17 AM CST on December 16, 2019 (GMT -0600)
Madison-Lac Qui Parle County

Weather History for KDXX - October, 2019

Change the Weather History Date:

Sunday, October 13, 2019

  Actual Average (WUND) Record (WUND)
Temperature  
Mean Temperature 37 °F -  
Max Temperature 42 °F - - (-1)
Min Temperature 32 °F - - (-1)
Degree Days  
Heating Degree Days 28    
Moisture  
Dew Point 32 °F    
Average Humidity 77    
Maximum Humidity 93    
Minimum Humidity 66    
Precipitation  
Precipitation 0.00 in - - ()
Sea Level Pressure  
Sea Level Pressure 29.84 in    
Wind  
Wind Speed 13 mph (WNW)    
Max Wind Speed 18 mph    
Max Gust Speed 28 mph    
Visibility 10 miles    
Events      
Averages and records for this station are not official NWS values.
T = Trace of Precipitation, MM = Missing Value Source: NWS Daily Summary

Daily Weather History Graph

Daily Weather History Graph

Search for Another Location

Airport or City:

Astronomy

Oct. 13, 2019 Rise Set
Actual Time 7:37 AM CDT 6:43 PM CDT
Civil Twilight 7:08 AM CDT 7:13 PM CDT
Nautical Twilight 6:34 AM CDT 7:47 PM CDT
Astronomical Twilight 6:00 AM CDT 8:21 PM CDT
Moon 7:08 PM CDT (10/13) 7:09 AM CDT (10/13)
Length of Visible Light 12h 05m
Length of Day
11h 06m
Full, 100% of the Moon is Illuminated
Oct 13
Full
Oct 13
Full
Oct 21
Last Quarter
Oct 27
New
Nov 4
First Quarter

Hourly Weather History & Observations

Time (CDT) Temp. Windchill Dew Point Humidity Pressure Visibility Wind Dir Wind Speed Gust Speed Precip Events Conditions
12:15 AM 37.4 °F 28.2 °F 30.2 °F 75% 29.70 in 10.0 mi WNW 16.1 mph 27.6 mph N/A   Overcast
12:19 AM 37.4 °F 28.2 °F 30.2 °F 75% 29.71 in 10.0 mi West 16.1 mph 27.6 mph N/A   Overcast
12:37 AM 37.4 °F 27.5 °F 30.2 °F 75% 29.71 in 10.0 mi West 18.4 mph 21.9 mph N/A   Overcast
12:56 AM 37.4 °F 29.3 °F 32.0 °F 81% 29.70 in 10.0 mi WNW 12.7 mph 20.7 mph N/A   Overcast
1:15 AM 37.4 °F 28.9 °F 32.0 °F 81% 29.71 in 7.0 mi West 13.8 mph 17.3 mph N/A   Overcast
1:16 AM 37.4 °F 28.5 °F 32.0 °F 81% 29.71 in 7.0 mi West 15.0 mph 19.6 mph N/A   Overcast
1:35 AM 37.4 °F 28.5 °F 33.8 °F 87% 29.71 in 7.0 mi WNW 15.0 mph 20.7 mph N/A   Overcast
1:57 AM 35.6 °F 27.1 °F 33.8 °F 93% 29.71 in 5.0 mi West 12.7 mph 18.4 mph N/A   Overcast
2:16 AM 37.4 °F 30.3 °F 33.8 °F 87% 29.72 in 10.0 mi West 10.4 mph 19.6 mph N/A   Overcast
2:35 AM 37.4 °F 29.3 °F 33.8 °F 87% 29.72 in 10.0 mi West 12.7 mph 19.6 mph N/A   Overcast
2:55 AM 37.4 °F 29.3 °F 32.0 °F 81% 29.72 in 10.0 mi WNW 12.7 mph 18.4 mph N/A   Overcast
2:56 AM 37.4 °F 29.3 °F 32.0 °F 81% 29.72 in 10.0 mi West 12.7 mph 18.4 mph N/A   Overcast
3:19 AM 37.4 °F 29.3 °F 32.0 °F 81% 29.72 in 10.0 mi West 12.7 mph - N/A   Overcast
3:36 AM 37.4 °F 29.8 °F 32.0 °F 81% 29.73 in 10.0 mi West 11.5 mph 16.1 mph N/A   Overcast
3:56 AM 37.4 °F 29.8 °F 32.0 °F 81% 29.73 in 10.0 mi West 11.5 mph - N/A   Overcast
4:15 AM 37.4 °F 28.9 °F 32.0 °F 81% 29.73 in 10.0 mi WNW 13.8 mph 21.9 mph N/A   Overcast
4:16 AM 37.4 °F 29.3 °F 32.0 °F 81% 29.73 in 10.0 mi WNW 12.7 mph 21.9 mph N/A   Overcast
4:35 AM 37.4 °F 28.9 °F 32.0 °F 81% 29.73 in 10.0 mi West 13.8 mph 21.9 mph N/A   Overcast
4:39 AM 37.4 °F 28.9 °F 32.0 °F 81% 29.73 in 10.0 mi WNW 13.8 mph 21.9 mph N/A   Overcast
4:58 AM 37.4 °F 28.9 °F 32.0 °F 81% 29.74 in 10.0 mi WNW 13.8 mph 19.6 mph N/A   Overcast
5:15 AM 37.4 °F 28.2 °F 32.0 °F 81% 29.74 in 10.0 mi WNW 16.1 mph 21.9 mph N/A   Overcast
5:35 AM 37.4 °F 27.8 °F 32.0 °F 81% 29.75 in 10.0 mi WNW 17.3 mph 20.7 mph N/A   Overcast
5:36 AM 37.4 °F 28.5 °F 32.0 °F 81% 29.75 in 10.0 mi WNW 15.0 mph 20.7 mph N/A   Overcast
5:55 AM 37.4 °F 28.5 °F 32.0 °F 81% 29.75 in 10.0 mi WNW 15.0 mph 19.6 mph N/A   Overcast
6:18 AM 37.4 °F 28.5 °F 32.0 °F 81% 29.75 in 10.0 mi WNW 15.0 mph 20.7 mph N/A   Overcast
6:37 AM 37.4 °F 28.9 °F 32.0 °F 81% 29.75 in 10.0 mi WNW 13.8 mph 20.7 mph N/A   Overcast
6:56 AM 37.4 °F 29.3 °F 32.0 °F 81% 29.75 in 10.0 mi WNW 12.7 mph 19.6 mph N/A   Overcast
7:15 AM 37.4 °F 28.9 °F 32.0 °F 81% 29.76 in 10.0 mi WNW 13.8 mph 18.4 mph N/A   Overcast
7:16 AM 37.4 °F 28.9 °F 32.0 °F 81% 29.76 in 10.0 mi WNW 13.8 mph 18.4 mph N/A   Overcast
7:35 AM 37.4 °F 29.3 °F 32.0 °F 81% 29.76 in 10.0 mi WNW 12.7 mph 17.3 mph N/A   Overcast
7:57 AM 37.4 °F 29.3 °F 30.2 °F 75% 29.77 in 10.0 mi WNW 12.7 mph 19.6 mph N/A   Overcast
8:15 AM 37.4 °F 28.9 °F 30.2 °F 75% 29.77 in 10.0 mi NW 13.8 mph 18.4 mph N/A   Overcast
8:35 AM 37.4 °F 28.5 °F 30.2 °F 75% 29.77 in 10.0 mi WNW 15.0 mph - N/A   Overcast
8:36 AM 37.4 °F 28.9 °F 32.0 °F 81% 29.77 in 10.0 mi WNW 13.8 mph 17.3 mph N/A   Overcast
8:55 AM 37.4 °F 29.8 °F 32.0 °F 81% 29.78 in 10.0 mi WNW 11.5 mph 19.6 mph N/A   Overcast
8:56 AM 37.4 °F 28.9 °F 32.0 °F 81% 29.78 in 10.0 mi WNW 13.8 mph 19.6 mph N/A   Overcast
9:19 AM 37.4 °F 27.5 °F 30.2 °F 75% 29.79 in 10.0 mi WNW 18.4 mph 21.9 mph N/A   Overcast
9:37 AM 37.4 °F 27.8 °F 30.2 °F 75% 29.80 in 10.0 mi WNW 17.3 mph 26.5 mph N/A   Overcast
9:56 AM 39.2 °F 30.5 °F 30.2 °F 70% 29.80 in 10.0 mi WNW 16.1 mph 26.5 mph N/A   Overcast
10:15 AM 39.2 °F 30.8 °F 30.2 °F 70% 29.81 in 10.0 mi WNW 15.0 mph - N/A   Overcast
10:16 AM 39.2 °F 31.6 °F 30.2 °F 70% 29.81 in 10.0 mi WNW 12.7 mph - N/A   Overcast
10:35 AM 39.2 °F 31.6 °F 30.2 °F 70% 29.82 in 10.0 mi NW 12.7 mph 20.7 mph N/A   Overcast
10:39 AM 39.2 °F 30.5 °F 32.0 °F 75% 29.82 in 10.0 mi NW 16.1 mph 20.7 mph N/A   Overcast
10:58 AM 39.2 °F 30.2 °F 30.2 °F 70% 29.82 in 10.0 mi WNW 17.3 mph 21.9 mph N/A   Overcast
11:15 AM 39.2 °F 30.8 °F 30.2 °F 70% 29.83 in 10.0 mi WNW 15.0 mph 23.0 mph N/A   Overcast
11:35 AM 39.2 °F 30.2 °F 30.2 °F 70% 29.83 in 10.0 mi WNW 17.3 mph 21.9 mph N/A   Overcast
11:36 AM 39.2 °F 30.5 °F 30.2 °F 70% 29.83 in 10.0 mi WNW 16.1 mph 21.9 mph N/A   Overcast
11:55 AM 39.2 °F 31.2 °F 32.0 °F 75% 29.83 in 10.0 mi WNW 13.8 mph 24.2 mph N/A   Overcast
11:56 AM 39.2 °F 31.6 °F 32.0 °F 75% 29.83 in 10.0 mi WNW 12.7 mph 24.2 mph N/A   Overcast
12:19 PM 41.0 °F 33.1 °F 32.0 °F 70% 29.83 in 10.0 mi WNW 15.0 mph 21.9 mph N/A   Overcast
12:36 PM 41.0 °F 32.8 °F 32.0 °F 70% 29.84 in 10.0 mi WNW 16.1 mph 19.6 mph N/A   Overcast
12:55 PM 42.8 °F 34.8 °F 32.0 °F 66% 29.84 in 10.0 mi WNW 17.3 mph 20.7 mph N/A   Overcast
12:56 PM 42.8 °F 35.1 °F 32.0 °F 66% 29.85 in 10.0 mi WNW 16.1 mph 20.7 mph N/A   Overcast
1:15 PM 42.8 °F 35.8 °F 32.0 °F 66% 29.85 in 10.0 mi WNW 13.8 mph 20.7 mph N/A   Overcast
1:16 PM 42.8 °F 35.4 °F 32.0 °F 66% 29.85 in 10.0 mi WNW 15.0 mph 18.4 mph N/A   Overcast
1:35 PM 42.8 °F 34.8 °F 32.0 °F 66% 29.85 in 10.0 mi WNW 17.3 mph 21.9 mph N/A   Overcast
1:57 PM 42.8 °F 36.6 °F 32.0 °F 66% 29.86 in 10.0 mi WNW 11.5 mph - N/A   Overcast
2:15 PM 42.8 °F 35.8 °F 32.0 °F 66% 29.86 in 10.0 mi WNW 13.8 mph - N/A   Overcast
2:35 PM 42.8 °F 35.8 °F 32.0 °F 66% 29.86 in 10.0 mi WNW 13.8 mph - N/A   Overcast
2:55 PM 42.8 °F 36.2 °F 33.8 °F 70% 29.86 in 10.0 mi West 12.7 mph 18.4 mph N/A   Overcast
2:56 PM 42.8 °F 35.4 °F 33.8 °F 70% 29.87 in 10.0 mi West 15.0 mph 18.4 mph N/A   Overcast
3:19 PM 42.8 °F 35.8 °F 32.0 °F 66% 29.87 in 10.0 mi WNW 13.8 mph - N/A   Overcast
3:37 PM 42.8 °F 35.8 °F 33.8 °F 70% 29.87 in 10.0 mi WNW 13.8 mph 20.7 mph N/A   Overcast
3:56 PM 42.8 °F 35.4 °F 33.8 °F 70% 29.88 in 10.0 mi WNW 15.0 mph - N/A   Overcast
4:15 PM 42.8 °F 35.8 °F 33.8 °F 70% 29.89 in 10.0 mi WNW 13.8 mph 21.9 mph N/A   Overcast
4:16 PM 42.8 °F 35.8 °F 33.8 °F 70% 29.89 in 10.0 mi WNW 13.8 mph 21.9 mph N/A   Overcast
4:35 PM 42.8 °F 35.8 °F 32.0 °F 66% 29.89 in 10.0 mi WNW 13.8 mph 21.9 mph N/A   Overcast
4:57 PM 42.8 °F 35.8 °F 32.0 °F 66% 29.90 in 10.0 mi WNW 13.8 mph 19.6 mph N/A   Overcast
5:16 PM 42.8 °F 35.8 °F 33.8 °F 70% 29.90 in 10.0 mi NW 13.8 mph 18.4 mph N/A   Overcast
5:35 PM 42.8 °F 35.4 °F 33.8 °F 70% 29.90 in 10.0 mi NW 15.0 mph - N/A   Overcast
5:36 PM 42.8 °F 35.8 °F 32.0 °F 66% 29.90 in 10.0 mi WNW 13.8 mph - N/A   Overcast
5:55 PM 42.8 °F 37.5 °F 32.0 °F 66% 29.91 in 10.0 mi NW 9.2 mph - N/A   Overcast
5:56 PM 42.8 °F 36.6 °F 32.0 °F 66% 29.91 in 10.0 mi NW 11.5 mph 16.1 mph N/A   Overcast
6:19 PM 41.0 °F 35.2 °F 33.8 °F 76% 29.91 in 10.0 mi WNW 9.2 mph - N/A   Overcast
6:36 PM 41.0 °F 34.7 °F 32.0 °F 70% 29.92 in 10.0 mi WNW 10.4 mph - N/A   Overcast
6:56 PM 41.0 °F 36.4 °F 33.8 °F 76% 29.93 in 10.0 mi WNW 6.9 mph - N/A   Overcast
7:15 PM 41.0 °F 35.8 °F 33.8 °F 76% 29.94 in 10.0 mi WNW 8.1 mph - N/A   Overcast
7:35 PM 39.2 °F 33.6 °F 33.8 °F 81% 29.94 in 10.0 mi WNW 8.1 mph - N/A   Overcast
7:39 PM 39.2 °F 34.2 °F 33.8 °F 81% 29.94 in 10.0 mi WNW 6.9 mph - N/A   Mostly Cloudy
7:58 PM 37.4 °F 32.8 °F 32.0 °F 81% 29.95 in 10.0 mi West 5.8 mph - N/A   Scattered Clouds
8:15 PM 35.6 °F 30.7 °F 32.0 °F 87% 29.95 in 10.0 mi West 5.8 mph - N/A   Clear
8:35 PM 35.6 °F 29.9 °F 30.2 °F 81% 29.96 in 10.0 mi West 6.9 mph - N/A   Clear
8:36 PM 35.6 °F 29.9 °F 30.2 °F 81% 29.96 in 10.0 mi West 6.9 mph - N/A   Clear
8:55 PM 35.6 °F 30.7 °F 30.2 °F 81% 29.96 in 10.0 mi West 5.8 mph - N/A   Clear
9:18 PM 35.6 °F 30.7 °F 32.0 °F 87% 29.97 in 10.0 mi West 5.8 mph - N/A   Clear
9:37 PM 35.6 °F 31.7 °F 30.2 °F 81% 29.97 in 10.0 mi West 4.6 mph - N/A   Clear
9:56 PM 33.8 °F 29.6 °F 30.2 °F 87% 29.97 in 10.0 mi West 4.6 mph - N/A   Clear
10:15 PM 33.8 °F 28.6 °F 30.2 °F 87% 29.97 in 10.0 mi West 5.8 mph - N/A   Clear
10:16 PM 33.8 °F 29.6 °F 30.2 °F 87% 29.97 in 10.0 mi West 4.6 mph - N/A   Clear
10:35 PM 33.8 °F 30.8 °F 30.2 °F 87% 29.97 in 10.0 mi WSW 3.5 mph - N/A   Clear
10:40 PM 33.8 °F 29.6 °F 30.2 °F 87% 29.97 in 10.0 mi WSW 4.6 mph - N/A   Clear
10:57 PM 33.8 °F 29.6 °F 30.2 °F 87% 29.97 in 10.0 mi WSW 4.6 mph - N/A   Clear
11:15 PM 33.8 °F - 30.2 °F 87% 29.97 in 10.0 mi Calm Calm - N/A   Clear
11:35 PM 33.8 °F - 30.2 °F 87% 29.97 in 10.0 mi Calm Calm - N/A   Clear
11:36 PM 33.8 °F - 30.2 °F 87% 29.97 in 10.0 mi Calm Calm - N/A   Clear
11:55 PM 32.0 °F 28.7 °F 30.2 °F 93% 29.97 in 10.0 mi West 3.5 mph - N/A   Clear
11:56 PM 32.0 °F 28.7 °F 30.2 °F 93% 29.97 in 10.0 mi West 3.5 mph - N/A   Clear